Weather History for Charlottetown, PE

Change the Weather History Date:

Wednesday, June 19, 2013

  Actual Average Record
Temperature  
Mean Temperature 56 °F -  
Max Temperature 64 °F 71 °F 75 °F (2006)
Min Temperature 47 °F 53 °F 42 °F (2005)
Degree Days  
Heating Degree Days 10    
Growing Degree Days 6 (Base 50)    
Moisture  
Dew Point 50 °F    
Average Humidity 75    
Maximum Humidity 94    
Minimum Humidity 48    
Precipitation  
Precipitation 0.02 in 0.11 in - ()
Sea Level Pressure  
Sea Level Pressure 29.94 in    
Wind  
Wind Speed 3 mph ()    
Max Wind Speed 14 mph    
Max Gust Speed 24 mph    
Visibility 15.0 miles    
Events Rain    
Averages and records for this station are not official NWS values.
T = Trace of Precipitation, MM = Missing Value Source: Averaged Metar Reports

Daily Weather History Graph

Daily Weather History Graph

Search for Another Location

Airport:

Trip Planner

Search our weather history database for the weather conditions in past years. The results will help you decide how hot, cold, wet, or windy it might be!

Date:

Astronomy

Jun. 19, 2013 Rise Set
Actual Time 5:20 AM ADT 9:07 PM ADT
Civil Twilight 4:41 AM ADT 9:46 PM ADT
Nautical Twilight 3:48 AM ADT 10:39 PM ADT
Astronomical Twilight 2:33 AM ADT 11:54 PM ADT
Moon 4:45 PM ADT (6/19) 2:13 AM ADT (6/19)
Length of Visible Light 17h 05m
Length of Day
15h 47m
Waxing Gibbous, 80% of the Moon is Illuminated
Jun 19
Waxing Gibbous
Jun 23
Full
Jun 30
Last Quarter
Jul 8
New
Jul 16
First Quarter

Hourly Weather History & Observations

Time (ADT) Temp. Dew Point Humidity Pressure Visibility Wind Dir Wind Speed Gust Speed Precip Events Conditions
12:00 AM 53.6 °F 50.0 °F 88% 29.92 in 15.0 mi WNW 2.3 mph - N/A   Mostly Cloudy
1:00 AM 48.2 °F 46.4 °F 93% 29.92 in 15.0 mi North 3.5 mph - N/A   Scattered Clouds
2:00 AM 51.8 °F 48.2 °F 88% 29.92 in 15.0 mi North 3.5 mph - N/A   Scattered Clouds
3:00 AM 53 °F 50 °F 86% 29.93 in 15 mi NNW 2.3 mph - -   Mostly Cloudy
3:00 AM 53.6 °F 50.0 °F 88% 29.93 in 15.0 mi NNW 3.5 mph - N/A   Mostly Cloudy
4:00 AM 53.6 °F 50.0 °F 88% 29.92 in 15.0 mi Calm Calm - N/A   Mostly Cloudy
5:00 AM 53.6 °F 51.8 °F 94% 29.92 in 15.0 mi Calm Calm - N/A   Mostly Cloudy
6:00 AM 53.6 °F 51.8 °F 94% 29.92 in 15.0 mi Calm Calm - N/A   Mostly Cloudy
7:00 AM 53.6 °F 51.8 °F 94% 29.93 in 15.0 mi Calm Calm - N/A   Mostly Cloudy
8:00 AM 57.2 °F 51.8 °F 82% 29.92 in 15.0 mi Calm Calm - N/A   Mostly Cloudy
9:00 AM 58 °F 51 °F 71% 29.93 in 15 mi North 1.2 mph - -   Scattered Clouds
9:00 AM 59.0 °F 51.8 °F 77% 29.93 in 15.0 mi Calm Calm - N/A   Mostly Cloudy
10:00 AM 60.8 °F 50.0 °F 68% 29.93 in 15.0 mi East 3.5 mph - N/A   Mostly Cloudy
11:00 AM 64.4 °F 48.2 °F 56% 29.92 in 15.0 mi NNW 4.6 mph - N/A   Mostly Cloudy
12:00 PM 62.6 °F 48.2 °F 59% 29.92 in 15.0 mi ENE 3.5 mph - N/A   Mostly Cloudy
12:43 PM 60.8 °F 51.8 °F 72% 29.91 in 15.0 mi North 4.6 mph - N/A Rain Light Rain Showers
1:00 PM 60.8 °F 51.8 °F 72% 29.91 in 15.0 mi North 3.5 mph - N/A Rain Light Rain Showers
1:33 PM 62.6 °F 53.6 °F 72% 29.91 in 15.0 mi ESE 3.5 mph - N/A   Mostly Cloudy
2:00 PM 60.8 °F 51.8 °F 72% 29.91 in 15.0 mi North 6.9 mph - N/A   Mostly Cloudy
3:00 PM 63 °F 48 °F 48% 29.92 in 15 mi NW 10.4 mph - -   Partly Cloudy
3:00 PM 62.6 °F 48.2 °F 59% 29.92 in 15.0 mi NW 11.5 mph - N/A   Scattered Clouds
3:46 PM 62.6 °F 50.0 °F 63% 29.93 in 15.0 mi North 13.8 mph 24.2 mph N/A   Scattered Clouds
4:00 PM 60.8 °F 50.0 °F 68% 29.93 in 15.0 mi North 12.7 mph - N/A   Scattered Clouds
5:00 PM 60.8 °F 48.2 °F 63% 29.93 in 15.0 mi NNW 9.2 mph 18.4 mph N/A   Partly Cloudy
6:00 PM 60.8 °F 48.2 °F 63% 29.94 in 15.0 mi NNW 10.4 mph - N/A   Partly Cloudy
7:00 PM 59.0 °F 48.2 °F 67% 29.95 in 15.0 mi North 10.4 mph - N/A   Partly Cloudy
8:00 PM 57.2 °F 48.2 °F 72% 29.98 in 15.0 mi North 8.1 mph - N/A   Partly Cloudy
9:00 PM 54 °F 47 °F 70% 29.99 in 15 mi WNW 3.5 mph - -   Clear
9:00 PM 53.6 °F 46.4 °F 77% 29.99 in 15.0 mi WNW 3.5 mph - N/A   Partly Cloudy
10:00 PM 48.2 °F 46.4 °F 93% 30.00 in 15.0 mi WNW 2.3 mph - N/A   Clear
11:00 PM 51.8 °F 46.4 °F 82% 30.01 in 15.0 mi WSW 3.5 mph - N/A   Clear